Year,Month,Day,Hour,Minute,Value (Times are PST for temperature in C)
2023,04,23,00,02,8.80
2023,04,23,00,07,8.80
2023,04,23,00,12,8.80
2023,04,23,00,17,8.80
2023,04,23,00,22,8.80
2023,04,23,00,27,8.80
2023,04,23,00,32,8.80
2023,04,23,00,37,8.80
2023,04,23,00,42,8.80
2023,04,23,00,47,8.80
2023,04,23,00,52,8.80
2023,04,23,00,57,8.80
2023,04,23,01,02,8.80
2023,04,23,01,07,8.80
2023,04,23,01,12,8.80
2023,04,23,01,17,8.80
2023,04,23,01,22,8.80
2023,04,23,01,27,8.80
2023,04,23,01,32,8.80
2023,04,23,01,37,8.80
2023,04,23,01,42,8.80
2023,04,23,01,47,8.80
2023,04,23,01,52,8.80
2023,04,23,01,57,8.80
2023,04,23,02,02,8.80
2023,04,23,02,07,8.80
2023,04,23,02,12,8.90
2023,04,23,02,17,8.80
2023,04,23,02,22,8.90
2023,04,23,02,27,8.90
2023,04,23,02,32,8.90
2023,04,23,02,37,8.90
2023,04,23,02,42,8.80
2023,04,23,02,47,8.90
2023,04,23,02,52,8.90
2023,04,23,02,57,8.90
2023,04,23,03,02,8.90
2023,04,23,03,07,8.90
2023,04,23,03,12,8.90
2023,04,23,03,17,8.80
2023,04,23,03,22,8.90
2023,04,23,03,27,8.80
2023,04,23,03,32,8.90
2023,04,23,03,37,8.90
2023,04,23,03,42,8.90
2023,04,23,03,47,8.90
2023,04,23,03,52,8.90
2023,04,23,03,57,8.90
2023,04,23,04,02,8.90
2023,04,23,04,07,8.90
2023,04,23,04,12,8.90
2023,04,23,04,17,9.00
2023,04,23,04,22,8.90
2023,04,23,04,27,8.90
2023,04,23,04,32,8.90
2023,04,23,04,37,8.90
2023,04,23,04,42,8.90
2023,04,23,04,47,8.90
2023,04,23,04,52,8.90
2023,04,23,04,57,8.90
2023,04,23,05,02,8.90
2023,04,23,05,07,8.80
2023,04,23,05,12,8.80
2023,04,23,05,17,8.70
2023,04,23,05,22,8.70
2023,04,23,05,27,8.60
2023,04,23,05,32,8.60
2023,04,23,05,37,8.60
2023,04,23,05,42,8.60
2023,04,23,05,47,8.50
2023,04,23,05,52,8.50
2023,04,23,05,57,8.50
2023,04,23,06,02,8.60
2023,04,23,06,07,8.50
2023,04,23,06,12,8.50
2023,04,23,06,17,8.50
2023,04,23,06,22,8.50
2023,04,23,06,27,8.50
2023,04,23,06,32,8.50
2023,04,23,06,37,8.50
2023,04,23,06,42,8.50
2023,04,23,06,47,8.50
2023,04,23,06,52,8.50
2023,04,23,06,57,8.50
2023,04,23,07,02,8.50
2023,04,23,07,07,8.50
2023,04,23,07,12,8.50
2023,04,23,07,17,8.50
2023,04,23,07,22,8.50
2023,04,23,07,27,8.50
2023,04,23,07,32,8.50
2023,04,23,07,37,8.50
2023,04,23,07,42,8.50
2023,04,23,07,47,8.50
2023,04,23,07,52,8.50
2023,04,23,08,02,8.50
2023,04,23,08,07,8.50
2023,04,23,08,12,8.50
2023,04,23,08,17,8.40
2023,04,23,08,22,8.40
2023,04,23,08,27,8.40
2023,04,23,08,32,8.40
2023,04,23,08,37,8.40
2023,04,23,08,42,8.50
2023,04,23,08,47,8.50
2023,04,23,08,52,8.50
2023,04,23,08,57,8.60
2023,04,23,09,02,8.70
2023,04,23,09,07,8.90
2023,04,23,09,12,9.00
2023,04,23,09,17,9.20
2023,04,23,09,22,9.30
2023,04,23,09,27,9.50
2023,04,23,09,32,9.60
2023,04,23,09,37,9.70
2023,04,23,09,42,9.80
2023,04,23,09,47,9.70
2023,04,23,09,52,9.80
2023,04,23,09,57,9.90
2023,04,23,10,02,10.00
2023,04,23,10,07,10.10
2023,04,23,10,12,10.10
2023,04,23,10,17,10.20
2023,04,23,10,27,10.20
2023,04,23,10,32,10.20
2023,04,23,10,37,10.40
2023,04,23,10,42,10.50
2023,04,23,10,47,10.60
2023,04,23,10,52,10.60
2023,04,23,10,57,10.70
2023,04,23,11,02,10.60
2023,04,23,11,07,10.60
2023,04,23,11,12,10.60
2023,04,23,11,17,10.50
2023,04,23,11,22,10.60
2023,04,23,11,27,10.60
2023,04,23,11,32,10.50
2023,04,23,11,37,10.50
2023,04,23,11,42,10.40
2023,04,23,11,47,10.30
2023,04,23,11,52,10.50
2023,04,23,11,57,10.60
2023,04,23,12,02,10.60
2023,04,23,12,07,10.60
2023,04,23,12,12,10.60
2023,04,23,12,17,10.60
2023,04,23,12,22,10.60
2023,04,23,12,27,10.60
2023,04,23,12,32,10.60
2023,04,23,12,37,10.60
2023,04,23,12,42,10.60
2023,04,23,12,47,10.70
2023,04,23,12,52,10.60
2023,04,23,12,57,10.60
2023,04,23,13,02,10.60
2023,04,23,13,07,10.50
2023,04,23,13,12,10.50
2023,04,23,13,17,10.50
2023,04,23,13,22,10.50
2023,04,23,13,27,10.50
2023,04,23,13,32,10.60
2023,04,23,13,37,10.60
2023,04,23,13,42,10.70
2023,04,23,13,47,10.60
2023,04,23,13,52,10.50
2023,04,23,13,57,10.40
2023,04,23,14,02,10.40
2023,04,23,14,07,10.30
2023,04,23,14,12,10.30
2023,04,23,14,17,10.30
2023,04,23,14,22,10.40
2023,04,23,14,27,10.40
2023,04,23,14,32,10.50
2023,04,23,14,37,10.50
2023,04,23,14,42,10.50
2023,04,23,14,47,10.50
2023,04,23,14,52,10.50
2023,04,23,14,57,10.60
2023,04,23,15,02,10.60
2023,04,23,15,07,10.60
2023,04,23,15,12,10.60
2023,04,23,15,17,10.50
2023,04,23,15,22,10.40
2023,04,23,15,27,10.40
2023,04,23,15,32,10.20
2023,04,23,15,37,10.10
2023,04,23,15,42,10.10
2023,04,23,15,47,10.00
2023,04,23,15,52,9.90
2023,04,23,15,57,9.90
2023,04,23,16,02,9.80
2023,04,23,16,07,9.80
2023,04,23,16,12,9.70
2023,04,23,16,17,9.70
2023,04,23,16,22,9.70
2023,04,23,16,27,9.70
2023,04,23,16,32,9.70
2023,04,23,16,37,9.70
2023,04,23,16,42,9.60
2023,04,23,16,47,9.60
2023,04,23,16,52,9.60
2023,04,23,16,57,9.70
2023,04,23,17,02,9.60
2023,04,23,17,07,9.60
2023,04,23,17,12,9.50
2023,04,23,17,17,9.50
2023,04,23,17,22,9.50
2023,04,23,17,27,9.50
2023,04,23,17,32,9.40
2023,04,23,17,37,9.30
2023,04,23,17,42,9.20
2023,04,23,17,47,9.30
2023,04,23,17,52,9.30
2023,04,23,17,57,9.20
2023,04,23,18,02,9.20
2023,04,23,18,07,9.10
2023,04,23,18,12,9.10
2023,04,23,18,17,9.10
2023,04,23,18,22,9.10
2023,04,23,18,27,9.10
2023,04,23,18,32,9.10
2023,04,23,18,37,9.10
2023,04,23,18,42,9.20
2023,04,23,18,47,9.20
2023,04,23,18,52,9.20
2023,04,23,18,57,9.20
2023,04,23,19,02,9.20
2023,04,23,19,07,9.20
2023,04,23,19,12,9.10
2023,04,23,19,17,9.10
2023,04,23,19,22,9.10
2023,04,23,19,27,9.00
2023,04,23,19,32,9.00
2023,04,23,19,37,8.90
2023,04,23,19,42,8.90
2023,04,23,19,47,8.80
2023,04,23,19,52,8.80
2023,04,23,19,57,8.80
2023,04,23,20,02,8.70
2023,04,23,20,07,8.70
2023,04,23,20,12,8.60
2023,04,23,20,17,8.60
2023,04,23,20,22,8.60
2023,04,23,20,27,8.50
2023,04,23,20,32,8.50
2023,04,23,20,37,8.50
2023,04,23,20,47,8.40
2023,04,23,20,52,8.40
2023,04,23,20,57,8.30
2023,04,23,21,02,8.30
2023,04,23,21,07,8.30
2023,04,23,21,12,8.30
2023,04,23,21,17,8.30
2023,04,23,21,22,8.20
2023,04,23,21,27,8.20
2023,04,23,21,32,8.10
2023,04,23,21,37,8.10
2023,04,23,21,42,8.00
2023,04,23,21,47,8.00
2023,04,23,21,52,8.00
2023,04,23,21,57,7.90
2023,04,23,22,02,7.90
2023,04,23,22,07,7.90
2023,04,23,22,12,7.90
2023,04,23,22,17,7.90
2023,04,23,22,22,7.80
2023,04,23,22,27,7.80
2023,04,23,22,32,7.80
2023,04,23,22,37,7.80
2023,04,23,22,42,7.80
2023,04,23,22,47,7.80
2023,04,23,22,52,7.80
2023,04,23,22,57,7.70
2023,04,23,23,02,7.70
2023,04,23,23,07,7.70
2023,04,23,23,12,7.70
2023,04,23,23,17,7.70
2023,04,23,23,22,7.70
2023,04,23,23,27,7.70
2023,04,23,23,32,7.70
2023,04,23,23,37,7.70
2023,04,23,23,42,7.70
2023,04,23,23,47,7.60
2023,04,23,23,52,7.60
2023,04,23,23,57,7.60
